GEFSSGP_con_prob3kmehi_078.txt.gz
EHI
0 0 0 0 0 1 1 1 0 0 0 0 0 0 0 0 1 1 0 2 13 30 40 47 55 51 34 18 8 4 2 0 0 0 0 0 0 0 0 0 0 0 0 0 0 0 0 0 0
0 0 0 0 0 0 0 0 0 0 0 0 0 0 0 0 1 1 1 5 20 37 42 48 58 57 42 25 14 8 4 1 0 0 0 0 0 0 0 0 0 0 0 0 0 0 0 0 0
0 0 0 0 0 0 0 0 0 0 0 0 0 0 0 0 1 1 1 8 24 36 40 52 67 66 52 37 24 14 7 2 0 0 0 0 0 0 0 0 0 0 0 0 0 0 0 0 0
0 0 0 0 0 0 0 0 0 0 0 0 0 0 0 3 7 7 5 9 18 25 34 55 74 73 60 47 34 22 11 3 0 0 0 0 0 0 0 0 0 0 0 0 0 0 0 0 0
0 0 0 0 0 0 0 0 0 0 0 0 0 0 1 10 21 19 9 7 12 20 29 52 75 77 65 54 43 28 14 5 1 0 0 0 0 0 0 0 0 0 0 0 0 0 0 0 0
0 0 0 0 0 0 0 0 0 0 0 0 0 0 2 14 26 21 8 4 9 18 26 41 63 71 66 57 45 29 17 9 4 1 1 1 0 0 0 0 0 0 0 1 1 0 0 0 0
0 0 0 0 0 0 0 0 0 0 0 0 0 0 2 9 17 15 8 5 7 12 19 29 39 47 50 45 35 25 16 11 6 3 2 2 1 0 0 0 0 0 1 2 2 2 1 1 1
0 0 0 0 0 0 0 0 0 0 0 0 0 0 1 4 12 20 20 15 10 7 10 17 20 22 22 21 19 16 11 7 5 3 3 3 2 1 0 0 1 1 3 5 5 5 5 4 4
0 0 0 0 0 0 0 0 0 1 2 1 0 0 1 5 17 35 44 37 23 10 7 10 12 9 6 6 7 7 5 4 3 3 3 3 2 1 0 0 1 2 4 7 10 11 10 7 6
0 0 0 0 0 0 0 0 0 2 4 4 2 1 3 8 21 43 60 59 41 19 8 7 8 7 5 4 4 4 4 3 3 4 4 4 3 2 2 2 2 3 5 9 13 16 15 13 11
0 0 0 0 0 0 0 0 1 2 4 5 4 5 7 9 17 35 57 66 54 30 13 8 7 7 6 6 6 7 6 5 4 6 7 8 7 6 5 4 3 4 6 11 16 19 21 20 17
0 0 0 0 0 0 0 0 1 2 3 5 6 9 10 9 11 22 42 59 58 41 21 9 7 7 7 7 9 11 11 10 11 13 14 14 14 12 9 6 4 5 8 15 20 20 20 18 16
0 0 0 0 0 0 0 0 0 1 4 7 10 13 14 12 13 17 30 47 56 50 32 18 15 16 15 16 19 21 21 22 24 25 25 25 23 19 13 8 5 6 10 15 18 15 12 11 10
0 0 0 0 0 0 0 0 0 2 8 16 20 20 20 20 20 21 26 36 49 54 48 40 39 41 40 40 42 42 38 37 39 40 39 38 35 28 20 12 9 8 9 11 11 8 6 5 5
0 0 0 0 0 0 0 1 1 4 13 24 29 30 30 30 31 31 29 33 45 56 60 62 64 69 69 67 67 65 57 51 51 50 48 46 42 35 25 15 10 9 7 7 6 4 3 2 1
0 0 0 0 0 0 0 0 1 7 18 30 37 39 40 42 44 43 40 41 47 55 61 66 73 78 80 77 75 70 62 54 50 47 44 42 38 31 22 14 9 6 4 3 3 2 1 0 0
0 0 0 0 0 0 0 1 3 13 26 38 46 51 53 53 53 52 50 47 47 51 56 61 67 71 72 68 63 56 48 42 38 34 31 27 24 21 15 10 6 3 2 1 1 0 0 0 0
0 0 0 0 0 0 1 3 10 22 35 47 55 58 58 54 49 47 48 46 44 47 51 53 55 57 55 50 45 38 30 25 21 19 17 15 13 12 9 6 4 2 1 0 0 0 0 0 0
0 0 0 0 0 0 2 6 14 26 37 46 53 55 52 46 39 36 38 41 41 42 44 41 40 41 38 35 32 26 17 11 8 7 7 7 6 5 4 3 2 2 2 1 0 0 0 0 0
0 0 0 0 0 0 2 5 11 20 31 39 44 46 44 38 31 29 30 33 35 36 35 31 28 26 25 24 23 17 11 7 4 3 3 3 2 2 1 1 1 1 2 1 0 0 0 0 0
0 0 0 0 0 0 0 2 5 13 23 32 37 39 37 31 25 24 24 24 26 28 28 25 20 17 16 16 17 15 13 10 6 4 2 1 1 1 0 0 0 0 1 1 0 0 0 0 0
0 0 0 0 0 0 0 0 3 9 17 24 27 28 25 20 17 17 17 16 17 19 19 17 14 12 12 13 15 16 16 13 9 5 3 3 3 2 1 1 1 0 0 0 0 0 0 0 0
0 0 0 0 0 0 0 0 2 6 11 14 14 12 10 9 9 9 9 8 9 11 10 9 8 8 8 10 12 12 12 11 9 5 4 3 3 2 2 2 2 1 0 0 0 0 0 0 0
0 0 0 0 0 0 0 0 1 3 5 5 4 3 2 2 2 2 2 2 3 4 4 4 5 4 4 4 5 5 6 6 5 4 3 2 1 1 1 1 1 1 1 1 1 0 0 0 0
0 0 0 0 0 0 0 0 0 1 1 1 2 2 1 0 0 0 0 0 1 1 1 2 2 1 1 1 2 3 3 3 3 2 1 1 0 0 0 0 0 0 1 1 1 1 0 0 0
0 0 0 0 0 0 0 0 0 0 0 0 1 2 2 1 0 0 0 0 0 0 0 1 1 0 0 1 1 1 1 2 2 1 0 0 0 0 0 0 0 0 0 1 1 1 0 0 0
0 0 0 0 0 0 0 0 0 0 0 0 0 1 2 1 0 0 0 0 0 0 0 0 0 0 0 1 1 0 0 1 1 0 0 0 0 0 0 0 0 0 0 0 0 0 0 0 0
0 0 0 0 0 0 0 0 0 0 0 0 0 1 1 0 0 0 0 0 0 0 0 0 0 0 0 0 0 0 0 0 0 0 0 0 0 0 0 0 0 0 0 0 0 0 0 0 0
0 0 0 0 0 0 0 0 0 0 0 0 0 0 0 0 0 0 0 0 0 0 0 0 0 0 0 0 0 0 0 0 0 0 0 0 0 0 0 0 0 0 0 0 0 0 0 0 0
0 0 0 0 0 0 0 0 0 0 0 0 0 0 0 0 0 0 0 0 0 0 0 0 0 0 0 0 0 0 0 0 0 0 0 0 0 0 0 0 0 0 0 0 0 0 0 0 0

GEFSSGP_con_prob3kmehi_084.txt.gz
EHI
0 0 0 0 0 0 0 0 0 0 0 0 0 0 0 0 1 0 0 0 2 5 8 10 12 12 11 10 10 14 16 15 13 10 6 3 1 0 0 0 0 0 0 0 0 0 0 0 0
0 0 0 0 0 0 0 0 0 0 0 0 0 0 0 1 1 1 0 0 3 9 12 15 19 19 17 16 16 16 15 12 9 7 5 3 1 0 0 0 0 0 0 0 0 0 0 0 0
0 0 0 0 0 0 0 0 0 0 0 0 0 0 0 1 2 1 0 1 7 14 18 25 33 32 27 25 25 22 17 12 7 5 4 3 2 0 0 0 0 0 0 0 0 0 0 0 0
0 0 0 0 0 0 0 0 0 0 0 0 0 0 0 1 2 1 0 5 14 20 24 36 49 48 40 37 36 32 24 16 10 6 4 3 2 0 0 0 0 0 0 0 0 0 0 0 0
0 0 0 0 0 0 0 0 0 0 0 0 0 0 0 1 2 1 2 9 20 28 30 43 61 66 57 51 47 42 32 21 14 9 5 3 1 0 0 0 0 0 0 0 0 0 0 0 0
0 0 0 0 0 0 0 0 0 0 0 0 0 0 1 2 3 2 4 11 23 34 38 47 65 75 72 64 57 49 38 25 15 9 5 2 1 0 0 0 0 0 0 0 0 0 0 0 0
0 0 0 0 0 0 0 0 0 0 0 0 0 0 1 3 6 8 10 16 28 39 45 51 62 71 72 67 59 49 38 25 15 6 2 0 0 0 0 0 0 0 0 0 0 0 0 0 0
0 0 0 0 0 0 0 0 0 0 0 0 0 0 3 11 18 20 20 23 31 37 43 51 58 63 63 60 53 44 31 21 12 5 2 1 1 1 1 0 0 0 0 0 0 0 0 0 0
0 0 0 0 0 0 0 0 0 0 0 0 0 2 13 30 37 34 29 29 30 30 35 45 54 58 57 50 43 35 24 14 9 7 5 4 3 3 3 2 1 0 0 0 0 0 0 0 0
0 0 0 0 0 0 0 0 0 0 0 0 1 8 30 54 56 44 35 30 25 22 26 36 45 53 53 44 35 29 23 16 12 10 7 6 6 6 6 4 3 2 1 0 0 1 1 1 1
0 0 0 0 0 0 0 0 0 0 0 0 2 15 44 68 67 52 40 29 21 18 22 30 39 47 48 41 34 29 27 22 17 13 10 9 9 8 7 6 5 4 2 1 1 3 4 4 5
0 0 0 0 0 0 0 0 0 0 0 1 5 21 48 70 71 57 43 31 22 19 23 30 39 44 43 38 32 28 27 23 19 15 14 13 10 8 7 7 6 5 3 2 3 4 4 6 8
0 0 0 0 0 0 0 0 0 1 1 4 11 24 42 59 64 57 48 39 31 26 25 28 34 36 34 30 25 23 22 20 17 16 16 14 10 8 8 7 6 5 4 4 4 3 3 4 6
0 0 0 0 0 0 0 0 1 2 4 9 17 26 36 47 55 55 50 46 40 33 28 26 25 24 23 23 21 19 18 17 15 15 16 16 13 10 8 6 4 3 4 5 4 2 1 1 2
0 0 0 0 0 0 0 1 3 5 7 13 21 29 35 42 49 51 47 43 39 36 33 30 26 20 17 17 17 16 16 15 12 12 13 14 13 11 8 5 3 2 3 5 4 2 0 0 1
0 0 0 0 0 0 0 1 5 9 12 15 21 29 33 34 38 41 39 35 34 35 35 34 31 25 19 16 14 15 17 15 10 8 8 8 8 7 7 5 3 2 4 4 4 2 1 0 0
0 0 0 0 0 0 0 3 7 12 17 18 20 23 25 22 23 28 30 30 29 30 32 32 32 30 26 21 16 16 17 16 12 7 5 3 2 3 4 4 3 3 4 4 3 2 1 0 0
0 0 0 0 0 1 2 4 8 12 17 19 18 18 18 15 15 19 22 22 22 22 23 24 26 29 28 24 20 16 15 16 14 9 5 4 2 1 2 2 2 2 2 1 1 1 0 0 0
0 0 0 0 1 2 3 4 7 10 13 15 16 14 13 12 12 15 16 15 17 16 15 15 18 21 22 20 17 14 13 13 11 8 6 4 3 3 2 1 1 0 0 0 0 0 0 0 0
0 0 0 0 1 2 3 3 4 8 10 11 11 10 8 8 10 11 11 12 13 12 10 9 10 12 13 11 10 9 8 6 5 4 3 3 3 3 3 2 0 0 0 0 0 0 0 0 0
0 0 0 0 0 1 2 2 3 7 8 7 5 4 4 4 6 7 7 8 8 8 6 5 5 5 5 4 4 4 3 1 1 1 1 1 2 2 2 1 0 0 0 0 0 0 0 0 0
0 0 0 0 0 0 1 1 2 4 6 4 2 2 1 2 3 3 3 3 4 3 3 2 1 1 1 1 1 1 1 0 0 0 0 0 1 1 1 0 0 0 0 0 0 0 0 0 0
0 0 0 0 0 0 0 0 1 2 2 1 0 0 0 0 1 1 1 1 1 1 1 1 0 0 0 0 0 0 0 0 0 0 0 0 0 0 0 0 0 0 0 0 0 0 0 0 0
0 0 0 0 0 0 0 0 0 0 0 0 0 0 0 0 0 0 0 0 0 0 0 0 0 0 0 0 0 0 0 0 0 0 0 0 0 0 0 0 0 0 0 0 0 0 0 0 0
0 0 0 0 0 0 0 0 0 0 0 0 0 0 0 0 0 0 0 0 0 0 0 0 0 0 0 0 0 0 0 0 0 0 0 0 0 0 0 0 0 0 0 0 0 0 0 0 0
0 0 0 0 0 0 0 0 0 0 0 0 0 0 0 0 0 0 0 0 0 0 0 0 0 0 0 0 0 0 0 0 0 0 0 0 0 0 0 0 0 0 0 0 0 0 0 0 0
0 0 0 0 0 0 0 0 0 0 0 0 0 0 0 0 0 0 0 0 0 0 0 0 0 0 0 0 0 0 0 0 0 0 0 0 0 0 0 0 0 0 0 0 0 0 0 0 0
0 0 0 0 0 0 0 0 0 0 0 0 0 0 0 0 0 0 0 0 0 0 0 0 0 0 0 0 0 0 0 0 0 0 0 0 0 0 0 0 0 0 0 0 0 0 0 0 0
0 0 0 0 0 0 0 0 0 0 0 0 0 0 0 0 0 0 0 0 0 0 0 0 0 0 0 0 0 0 0 0 0 0 0 0 0 0 0 0 0 0 0 0 0 0 0 0 0
0 0 0 0 0 0 0 0 0 0 0 0 0 0 0 0 0 0 0 0 0 0 0 0 0 0 0 0 0 0 0 0 0 0 0 0 0 0 0 0 0 0 0 0 0 0 0 0 0

GEFSSGP_con_prob3kmehi_090.txt.gz
EHI
0 0 0 0 0 0 0 0 0 0 0 0 0 0 0 0 0 3 7 10 15 30 38 28 16 8 5 6 6 4 4 6 9 9 7 4 2 1 1 0 0 0 0 0 0 0 0 0 0
0 0 0 0 0 0 0 0 0 0 0 0 0 0 0 0 1 4 7 9 14 27 35 29 19 9 5 6 6 5 5 7 10 10 7 6 3 1 0 0 0 0 0 0 0 0 0 0 0
0 0 0 0 0 0 0 0 0 0 0 0 0 0 0 1 2 4 6 7 11 20 31 35 27 13 7 7 8 8 9 12 14 12 10 8 5 2 0 0 0 0 0 0 0 0 0 0 0
0 0 0 0 0 0 0 0 0 0 0 0 0 0 1 2 4 5 4 4 8 15 28 40 36 20 11 9 10 12 15 17 17 16 13 11 7 3 1 1 1 0 0 0 0 0 0 0 0
0 0 0 0 0 0 0 0 0 0 0 0 0 0 2 6 8 7 5 3 7 11 25 42 41 25 15 12 12 15 18 19 17 15 14 11 7 2 1 2 2 1 0 0 0 0 0 1 1
0 0 0 0 0 0 0 0 0 0 0 0 0 0 4 11 14 11 7 3 4 8 23 41 39 25 16 12 12 13 15 16 15 13 11 8 4 2 2 3 2 1 0 0 0 0 0 1 2
0 0 0 0 0 0 0 0 0 0 0 0 0 0 7 19 29 25 15 7 5 7 19 32 29 18 12 9 10 11 11 12 12 11 9 6 2 1 1 2 1 0 0 0 0 0 0 1 2
0 0 0 0 0 0 0 0 0 0 0 0 0 1 13 37 54 50 36 23 16 12 15 19 17 11 7 5 6 9 9 10 11 10 7 4 1 0 1 1 1 1 0 0 0 0 0 0 1
0 0 0 0 0 0 0 0 0 0 0 0 1 5 26 58 75 73 63 50 39 27 18 13 11 8 5 4 5 6 7 9 9 7 5 3 2 1 1 3 4 3 0 0 0 0 0 0 0
0 0 0 0 0 0 0 0 0 0 0 0 2 11 36 64 77 77 72 64 56 43 28 19 15 13 9 7 7 6 8 10 9 8 8 8 7 6 3 5 9 6 2 1 1 1 0 0 1
0 0 0 0 0 0 0 0 1 2 2 2 5 16 34 50 60 62 60 58 56 49 39 31 30 28 22 18 15 14 17 19 17 17 20 21 20 18 12 10 11 11 9 6 6 6 3 1 2
0 0 0 0 0 0 0 0 2 5 6 5 9 18 27 34 41 45 47 50 52 51 45 42 46 50 45 38 30 27 29 32 31 33 36 37 36 31 23 19 16 16 17 15 13 12 8 4 3
0 0 0 0 0 0 0 1 4 8 10 12 16 22 27 32 38 45 49 51 52 51 47 48 56 64 65 59 49 41 40 42 44 46 48 47 44 37 31 28 24 20 20 20 18 15 9 6 6
0 0 0 0 0 0 1 3 9 14 16 20 26 33 40 48 54 58 59 56 53 50 48 51 60 68 71 68 60 53 50 49 48 49 49 46 42 38 35 32 27 22 22 22 19 13 9 9 9
0 0 0 0 0 0 1 6 15 20 23 28 35 44 55 65 69 70 67 62 57 52 50 52 56 63 66 64 60 55 49 45 42 41 39 36 34 36 37 34 28 23 22 24 20 12 8 9 9
0 0 0 0 0 0 1 8 19 23 25 31 39 47 58 65 70 72 69 64 60 57 53 49 47 52 57 57 54 49 41 36 33 31 27 24 24 30 35 31 25 21 20 20 17 11 6 5 5
0 0 0 0 0 0 2 9 17 20 22 27 34 41 47 52 57 59 59 56 54 54 51 45 42 45 47 46 46 43 36 31 29 28 24 19 18 23 27 24 20 18 17 14 11 8 6 3 2
0 0 0 0 0 0 2 6 10 12 16 22 28 32 36 38 37 38 40 40 41 41 40 38 38 39 39 37 36 34 29 25 24 24 21 17 15 17 19 20 18 15 14 12 10 8 6 4 3
0 0 0 0 0 0 1 3 5 6 12 19 24 26 27 25 22 22 24 26 27 28 27 26 27 30 32 31 27 23 19 17 15 14 12 10 8 10 14 18 17 13 12 13 10 7 5 4 2
0 0 0 0 0 0 1 3 6 9 12 16 18 19 18 16 16 17 16 15 16 17 17 16 18 20 23 23 19 13 11 10 8 6 4 3 3 5 9 13 13 12 11 11 8 5 3 2 1
0 0 0 0 0 0 1 4 10 15 15 13 11 10 9 9 12 13 10 7 8 10 10 10 12 13 14 13 10 7 7 7 5 3 2 2 2 3 6 8 9 10 9 6 4 3 2 2 2
0 0 0 0 0 0 0 5 12 15 15 11 7 4 3 4 6 6 4 3 4 5 5 5 8 9 7 6 5 4 5 5 4 3 2 2 1 2 3 4 5 7 6 4 3 2 1 1 1
0 0 0 0 0 0 0 5 11 13 12 10 5 2 1 1 1 1 1 1 1 2 1 3 5 6 4 2 2 3 3 3 2 2 3 2 1 2 2 2 3 4 5 5 5 3 1 1 0
0 0 0 0 0 0 0 5 11 13 10 8 5 2 1 0 0 1 1 0 0 0 0 1 3 4 2 1 1 1 1 1 1 1 2 2 2 1 1 1 1 3 4 5 5 5 3 2 1
0 0 0 0 0 0 0 5 12 12 7 5 4 2 1 0 0 1 1 0 0 0 0 0 1 1 1 1 0 0 0 0 0 0 0 1 1 0 0 0 0 1 2 3 3 4 4 3 2
0 0 0 0 0 0 0 4 9 8 3 2 1 1 0 0 0 0 0 0 0 0 0 0 0 0 0 0 0 0 0 0 0 1 1 0 0 0 0 0 0 0 1 1 2 3 3 2 1
0 0 0 0 0 0 0 3 5 3 1 0 0 0 0 0 0 0 0 0 0 0 0 0 0 0 0 0 0 0 0 0 0 1 1 1 1 1 0 0 0 0 0 0 0 1 2 2 1
0 0 0 0 0 0 0 1 1 1 0 0 0 0 0 0 0 0 0 0 0 0 0 0 0 0 0 0 0 0 0 0 0 1 1 1 1 1 0 0 0 0 0 0 0 0 1 2 2
0 0 0 0 0 0 0 0 0 0 0 0 0 0 0 0 0 0 0 0 0 0 0 0 0 0 0 0 0 0 0 0 0 0 0 0 1 1 0 0 0 0 0 0 0 0 0 1 1
0 0 0 0 0 0 0 0 0 0 0 0 0 0 0 0 0 0 0 0 0 0 0 0 0 0 0 0 0 0 0 0 0 0 0 0 0 0 0 0 0 0 0 0 0 0 0 0 0

GEFSSGP_con_prob3kmehi_096.txt.gz
EHI
0 0 0 0 2 5 4 3 1 0 0 0 0 0 0 0 0 1 5 28 65 77 67 68 69 58 38 22 12 6 3 1 0 0 0 0 0 0 0 0 0 0 0 0 0 0 0 0 0
0 0 0 1 3 4 2 1 0 0 0 0 0 0 0 0 0 3 11 37 69 73 60 61 67 59 42 26 14 6 3 2 1 0 0 0 0 0 0 0 0 0 0 0 0 0 0 0 0
0 0 0 2 5 4 1 0 0 0 0 0 0 0 1 0 0 5 18 45 69 66 53 59 66 59 46 32 18 8 4 3 2 1 1 1 1 1 1 0 0 0 0 0 0 0 0 0 0
0 0 0 2 4 4 2 0 0 0 0 0 1 4 5 2 1 6 19 42 62 62 55 59 65 60 49 36 21 11 5 3 1 1 1 1 2 2 2 1 0 1 0 0 0 0 0 0 0
0 0 0 1 2 2 1 0 0 0 0 0 3 10 11 5 2 5 14 32 53 64 64 63 67 65 54 38 24 14 8 3 1 1 0 1 3 4 3 2 2 2 1 0 0 0 0 0 0
0 0 0 1 1 1 0 0 0 0 0 0 4 12 14 7 2 3 9 21 45 70 75 70 69 66 56 41 25 17 11 5 2 1 1 2 5 6 5 5 5 5 4 3 1 1 0 0 0
0 0 0 0 0 0 0 0 0 0 0 0 4 12 16 11 3 2 5 13 40 73 81 69 62 57 48 36 26 19 13 7 4 3 3 4 5 5 5 6 7 8 9 8 6 4 2 0 0
0 0 0 0 0 0 0 0 0 0 0 2 6 13 16 12 6 3 4 11 38 72 76 59 48 42 31 24 23 21 16 11 8 7 5 4 3 2 3 7 11 13 14 14 13 10 6 2 1
0 0 0 0 0 0 0 0 0 1 4 8 13 17 16 12 8 7 5 11 33 61 66 52 43 33 18 17 23 21 15 14 14 15 13 8 3 1 4 13 24 26 24 22 21 19 15 8 2
0 0 0 0 0 0 0 0 0 4 11 17 19 20 17 12 12 12 8 10 23 44 56 56 53 38 18 22 34 24 15 20 22 24 27 20 10 8 14 31 49 50 41 32 28 27 22 12 4
0 0 0 0 0 0 0 0 2 7 16 22 24 23 20 16 18 20 19 20 26 37 49 58 63 54 36 40 51 36 26 35 36 36 42 37 26 23 32 53 71 70 55 40 34 32 25 13 6
0 0 0 0 0 0 0 1 5 12 19 24 29 33 32 28 29 34 39 41 45 49 53 60 70 72 62 62 66 54 43 50 54 56 58 54 48 45 51 67 77 72 58 44 37 35 27 15 10
0 0 0 0 0 0 1 2 7 16 23 28 36 46 53 51 51 55 60 61 63 66 67 69 78 83 81 76 74 66 60 61 67 72 72 70 69 66 66 71 71 64 57 51 44 39 33 25 20
0 0 0 0 0 1 2 4 9 17 25 32 41 55 69 75 73 74 76 75 74 76 78 79 83 87 86 82 76 71 68 68 70 74 76 77 78 76 73 70 65 60 59 59 54 47 43 37 30
0 0 0 0 0 1 2 5 11 20 29 37 46 58 71 81 85 84 84 83 82 81 82 83 83 84 84 82 76 68 65 67 68 69 70 71 72 75 74 69 63 61 60 61 57 51 48 43 35
0 0 0 0 0 0 2 7 16 25 36 46 51 55 61 71 80 83 82 82 82 83 84 84 81 80 78 76 71 65 61 62 62 62 60 58 59 63 66 63 57 55 56 54 48 45 42 37 32
0 0 0 0 0 1 5 12 22 31 40 49 52 52 52 55 63 69 71 73 74 77 78 78 76 74 71 67 64 62 61 59 55 53 50 45 43 44 46 46 42 43 47 44 38 35 34 28 22
0 0 0 0 0 3 9 18 25 31 39 46 47 45 43 40 40 44 50 55 60 64 65 67 68 67 63 60 60 59 55 53 48 45 41 35 30 26 25 25 26 30 34 34 31 31 31 26 19
0 0 0 0 0 4 14 24 30 34 39 41 38 34 29 25 22 22 27 34 41 47 50 52 55 56 56 56 55 51 45 40 37 35 32 27 21 16 13 12 15 19 21 22 23 26 27 22 18
0 0 0 0 1 6 17 29 35 36 36 32 26 21 17 13 11 12 14 18 23 29 33 36 40 43 46 45 41 35 29 25 24 24 22 18 14 10 8 8 8 10 12 12 14 18 17 13 11
0 0 0 1 1 6 17 29 33 30 24 18 13 11 10 7 7 7 8 9 11 14 19 24 29 33 33 29 25 19 15 13 14 15 15 12 8 7 6 6 5 4 6 7 9 11 10 7 6
0 0 0 0 0 4 11 21 23 16 10 7 6 7 7 4 4 4 5 5 5 7 12 18 25 29 28 23 18 15 12 9 9 11 10 8 7 5 4 3 2 2 3 4 6 8 9 8 5
0 0 0 0 0 1 4 9 10 7 4 5 7 8 7 4 4 5 5 4 5 5 8 14 22 27 26 22 19 16 13 8 7 6 6 6 6 3 2 1 2 2 4 4 5 8 10 8 5
0 0 0 0 0 0 1 3 4 3 3 6 7 7 6 4 4 4 3 3 4 4 5 8 14 19 19 16 14 14 11 7 4 4 3 4 3 1 1 2 3 5 5 5 6 6 7 6 6
0 0 0 0 0 0 1 3 4 3 3 4 3 3 2 2 2 2 1 1 2 3 3 4 8 10 10 8 7 8 7 4 2 1 1 1 1 1 2 2 3 4 5 6 5 5 4 4 5
0 0 0 0 0 0 2 4 4 2 1 1 0 0 0 0 0 0 0 0 1 1 1 3 5 6 5 3 3 4 3 1 0 0 0 0 0 1 2 2 2 2 3 4 4 4 3 3 4
0 0 0 0 0 0 2 4 3 1 0 0 0 0 0 0 0 0 0 0 0 0 0 1 2 3 3 2 3 2 1 0 0 0 0 0 0 0 1 1 1 1 1 1 2 2 2 2 2
0 0 0 0 0 0 1 2 2 0 0 0 0 0 0 0 0 0 0 0 0 0 0 0 0 1 2 2 2 1 0 0 0 0 0 0 0 0 0 0 0 0 0 0 0 1 1 1 1
0 0 0 0 0 0 0 0 0 0 0 0 0 0 0 0 0 0 0 0 0 0 0 0 0 0 1 1 1 0 0 1 0 0 0 0 0 0 0 0 0 0 0 0 0 0 0 1 1
0 0 0 0 0 0 0 0 0 0 0 0 0 0 0 0 0 0 0 0 0 0 0 0 0 0 0 0 0 0 0 1 0 0 0 0 0 0 0 0 0 0 0 0 0 0 0 1 0

GEFSSGP_con_prob3kmehi_102.txt.gz
EHI
4 2 0 0 0 0 0 0 0 0 0 1 1 1 2 2 1 2 11 27 47 63 73 83 93 95 88 75 61 42 22 9 4 3 2 1 0 0 0 0 0 0 0 0 0 0 0 0 0
2 1 0 0 0 0 0 0 1 1 0 0 0 0 1 1 3 6 15 35 58 70 73 79 92 97 90 78 67 50 29 13 6 3 1 0 0 0 0 0 0 0 0 0 0 0 0 0 0
0 0 0 0 0 2 2 2 2 1 0 0 1 1 1 1 6 14 26 46 66 73 70 77 93 99 93 84 75 62 40 20 10 5 2 1 0 0 0 0 0 0 0 0 0 0 0 0 0
0 0 0 0 2 5 6 6 4 2 1 1 1 2 2 5 18 32 40 51 64 67 68 78 93 99 96 89 81 70 52 32 17 8 4 2 1 0 0 0 0 0 0 0 0 0 0 0 0
0 0 0 0 3 6 8 7 5 3 2 2 2 2 2 12 35 48 45 44 54 61 66 77 92 98 97 92 86 77 64 46 29 16 8 5 4 2 1 0 1 1 0 0 0 0 0 0 0
0 0 0 0 2 4 5 5 5 6 5 4 4 3 1 13 37 48 42 36 44 57 64 74 87 94 95 94 90 85 75 63 47 30 16 9 7 6 5 4 4 3 2 1 0 0 0 0 0
0 0 0 0 0 1 1 1 4 8 10 7 6 4 2 8 25 41 46 43 43 50 59 67 75 83 87 89 88 84 77 69 59 44 28 18 14 13 12 10 9 7 5 3 1 1 1 1 1
0 0 0 0 0 0 0 0 4 11 16 15 10 6 2 5 21 44 59 58 49 41 44 52 60 65 70 75 77 72 65 59 55 49 37 26 17 13 13 12 10 9 7 5 4 3 3 3 2
0 0 0 0 0 0 0 1 5 15 24 26 22 16 11 14 31 55 69 69 55 37 28 34 42 47 51 55 57 53 46 42 42 40 36 27 14 7 6 6 7 9 8 6 6 7 7 6 4
0 0 0 0 0 1 3 5 9 20 30 35 36 34 31 32 45 63 72 70 58 39 25 24 32 36 37 38 39 36 31 29 28 26 25 21 11 3 2 4 8 10 9 7 6 9 11 10 8
0 0 0 1 0 2 7 13 19 26 34 40 47 52 53 53 58 68 71 67 58 44 31 28 30 31 28 28 31 29 24 20 17 14 13 12 9 5 3 6 11 15 15 13 13 16 17 15 12
0 0 0 1 1 4 11 21 30 38 43 50 57 61 63 65 65 66 67 64 57 49 40 35 34 32 28 28 30 27 22 19 15 10 7 8 9 6 5 7 13 21 27 27 25 26 24 18 14
0 0 0 1 3 8 16 25 36 48 57 63 65 64 62 62 62 61 62 62 59 52 46 42 40 39 37 36 35 32 27 25 22 13 8 11 11 9 7 7 11 20 31 34 31 27 23 17 13
0 0 0 1 5 11 19 26 37 52 65 69 67 63 57 54 55 56 57 59 59 56 52 48 47 47 47 46 44 40 36 33 29 19 14 14 14 12 9 7 7 12 20 26 26 22 18 14 11
0 0 0 1 4 11 20 28 39 54 64 65 62 57 50 46 46 49 51 53 56 56 54 52 50 49 48 47 45 41 38 34 29 21 16 15 14 12 8 5 4 6 8 13 16 16 15 12 9
0 0 0 1 3 10 21 33 43 52 58 56 51 45 39 35 35 37 41 44 46 48 49 49 47 43 41 40 36 32 31 28 22 17 15 14 13 9 5 2 2 4 4 6 10 11 11 10 8
0 0 0 1 4 13 26 38 44 45 44 42 38 32 27 24 23 24 27 29 30 32 34 35 33 31 30 29 24 20 20 18 14 11 11 12 10 6 2 1 2 4 4 5 7 7 7 6 6
0 0 0 2 8 21 35 43 39 32 28 27 24 19 15 13 11 11 12 13 15 15 16 17 17 17 18 17 13 10 9 8 6 6 7 8 6 4 3 2 2 4 5 5 6 6 5 5 6
0 0 1 4 12 24 35 35 27 18 14 13 11 9 8 6 4 4 4 5 6 5 4 6 9 10 10 9 7 5 4 3 3 3 4 4 3 3 3 3 3 4 4 4 5 5 5 5 5
0 0 1 6 13 20 22 19 11 6 4 3 4 5 4 1 1 1 2 3 3 2 1 3 6 7 7 6 4 3 3 3 3 3 3 3 2 2 2 3 3 3 3 3 4 4 4 4 4
0 0 2 6 10 12 11 7 3 1 1 0 2 3 2 0 0 0 1 2 2 1 1 3 5 5 4 4 3 3 3 3 3 3 3 3 2 2 2 2 3 3 3 3 3 3 3 3 3
0 0 2 3 4 5 4 2 1 1 1 1 1 0 0 0 0 0 1 2 1 1 2 3 3 3 2 2 1 1 2 2 2 2 2 2 1 1 1 1 2 3 3 2 2 2 2 2 1
0 0 1 1 1 1 1 0 0 0 1 1 1 0 0 0 0 0 1 2 1 1 2 2 1 1 1 0 0 0 0 0 1 1 1 1 0 0 0 0 1 2 1 1 1 1 1 1 0
0 0 0 0 0 0 0 0 0 0 0 0 0 0 0 0 0 0 1 1 0 0 1 1 1 0 0 0 0 0 0 0 0 0 0 0 0 0 0 0 0 0 0 0 0 0 0 0 0
0 0 0 0 0 0 0 0 0 0 0 0 0 0 0 0 0 0 0 0 0 0 0 0 0 0 0 0 0 0 0 0 0 0 0 0 0 0 0 0 0 0 0 0 0 0 0 0 0
0 0 0 0 0 0 0 0 0 0 0 0 0 0 0 0 0 0 0 0 0 0 0 0 0 0 0 0 0 0 0 0 0 0 0 0 0 0 0 0 0 0 0 0 0 0 0 0 0
0 0 0 0 0 0 0 0 0 0 0 0 0 0 0 0 0 0 0 0 0 0 0 0 0 0 0 0 0 0 0 0 0 0 0 0 0 0 0 0 0 0 0 0 0 0 0 0 0
0 0 0 0 0 0 0 0 0 0 0 0 0 0 0 0 0 0 0 0 0 0 0 0 0 0 0 0 0 0 0 0 0 0 0 0 0 0 0 0 0 0 0 0 0 0 0 0 0
0 0 0 0 0 0 0 0 0 0 0 0 0 0 0 0 0 0 0 0 0 0 0 0 0 0 0 0 0 0 0 0 0 0 0 0 0 0 0 0 0 0 0 0 0 0 0 0 0
0 0 0 0 0 0 0 0 0 0 0 0 0 0 0 0 0 0 0 0 0 0 0 0 0 0 0 0 0 0 0 0 0 0 0 0 0 0 0 0 0 0 0 0 0 0 0 0 0

GEFSSGP_con_prob3kmehi_108.txt.gz
EHI
0 0 0 0 0 0 0 0 0 0 0 0 0 0 0 0 0 0 2 11 36 57 56 54 65 75 79 81 82 84 82 77 72 67 59 48 40 31 18 7 2 0 0 0 0 0 0 0 0
0 0 0 0 0 0 0 0 0 0 0 0 0 0 0 0 0 0 4 16 42 61 59 58 71 80 81 81 81 82 79 73 67 62 56 46 36 26 14 7 3 1 0 0 0 0 0 0 0
0 0 0 0 0 0 0 0 0 0 0 0 0 0 0 0 0 2 8 27 53 65 60 62 76 85 84 81 79 76 71 64 56 51 45 36 26 17 9 6 4 1 0 0 0 0 0 0 0
0 0 0 0 0 1 2 2 1 0 0 0 0 0 1 2 3 6 18 42 66 70 61 64 77 85 84 81 77 71 62 53 45 38 31 22 14 8 5 3 2 1 0 0 0 0 0 0 0
0 0 0 0 0 2 3 2 1 0 0 0 0 1 2 4 6 12 25 50 73 76 66 66 76 82 81 77 75 68 56 45 38 30 22 13 7 4 2 1 1 0 0 0 0 0 0 0 0
0 0 0 0 0 1 1 1 0 0 1 2 1 1 4 7 8 11 24 46 66 73 68 67 72 76 75 72 70 64 52 42 33 24 17 9 4 2 1 0 0 0 0 0 0 0 0 0 0
0 0 0 0 0 0 0 0 0 1 3 3 1 1 5 9 9 11 24 40 53 63 67 67 67 69 69 67 64 58 47 36 27 20 14 8 3 1 0 0 0 0 0 0 0 0 0 0 0
0 0 0 0 0 0 0 0 1 3 5 5 4 4 9 17 20 23 31 38 43 49 55 60 64 66 67 64 60 54 43 32 23 17 13 8 3 1 0 0 0 0 0 0 0 0 0 0 0
0 0 0 0 0 0 0 0 1 5 9 12 14 17 24 35 42 43 41 38 37 36 37 44 52 61 64 62 56 49 41 32 24 19 14 10 6 2 1 1 1 2 1 1 0 0 0 0 1
0 0 0 0 0 0 1 2 3 8 14 19 24 33 45 55 58 53 45 39 35 31 27 29 35 43 50 52 48 44 39 33 29 26 22 17 12 8 6 4 3 3 3 2 1 2 3 3 3
0 0 0 1 1 2 3 6 10 16 21 25 31 44 58 64 58 47 40 37 35 31 26 23 24 27 33 36 37 38 37 33 31 30 28 25 20 16 13 9 5 4 3 3 4 6 8 8 6
0 0 1 1 2 5 10 16 23 30 32 34 41 51 59 59 50 38 31 30 29 29 25 20 19 20 22 25 27 29 29 28 27 25 24 24 21 17 14 11 6 5 5 5 6 8 9 10 9
0 0 2 4 7 13 21 28 33 39 41 44 49 54 54 48 40 32 28 25 23 23 21 18 18 19 20 20 21 21 20 20 20 18 17 17 15 13 11 9 5 4 6 7 6 5 7 9 10
0 1 3 6 10 18 29 34 34 35 40 45 49 50 44 37 32 28 25 22 19 18 19 19 18 18 19 18 17 15 12 12 14 14 12 12 10 9 10 9 6 3 3 5 5 4 5 7 9
0 1 2 4 7 15 27 33 30 29 33 38 39 37 32 27 25 22 18 16 15 15 18 21 18 14 15 16 14 11 8 7 9 9 9 8 6 6 7 8 6 2 1 2 3 4 5 5 4
0 0 1 2 4 10 20 25 24 23 26 28 26 22 19 17 15 13 11 9 9 10 11 13 12 9 8 9 10 9 7 5 6 5 5 5 4 4 4 4 3 1 0 1 3 5 5 3 2
0 0 0 0 3 10 17 21 19 18 19 19 15 12 9 7 6 6 6 5 5 4 3 3 4 3 2 3 4 5 5 5 5 4 3 4 4 5 4 3 1 1 1 2 4 5 4 3 2
0 0 0 1 4 12 19 21 18 14 12 10 6 4 3 2 2 2 2 3 2 1 0 0 0 0 0 0 0 1 2 3 3 3 3 3 4 4 4 3 3 2 2 3 4 4 4 2 1
1 1 1 3 5 11 16 17 13 8 5 4 2 0 0 1 1 0 1 1 1 0 0 0 0 0 0 0 0 1 2 2 2 2 3 3 3 3 3 3 3 3 3 3 3 3 3 3 2
2 2 2 4 4 6 8 7 4 2 1 1 0 0 0 0 0 0 0 0 0 0 0 0 0 0 0 0 0 1 1 2 1 1 1 2 3 3 2 3 3 2 2 2 3 3 3 3 3
1 1 3 3 2 1 1 1 0 0 0 0 0 0 0 0 0 0 0 0 0 0 0 0 0 0 0 0 0 0 0 0 1 1 1 1 2 2 3 3 2 1 1 1 1 2 2 3 3
0 1 3 3 1 0 0 0 0 0 0 0 0 0 0 0 0 0 0 0 0 0 0 0 0 0 0 0 0 0 0 0 0 0 0 0 1 1 2 2 2 1 0 0 0 1 1 1 2
0 1 2 1 0 0 0 0 0 0 0 0 0 0 0 0 0 0 0 0 0 0 0 0 0 0 0 0 0 0 0 0 0 0 0 0 0 0 1 1 1 1 0 0 0 0 0 0 1
0 0 0 0 0 0 0 0 0 0 0 0 0 0 0 0 0 0 0 0 0 0 0 0 0 0 0 0 0 0 0 0 0 0 0 0 0 0 0 0 0 0 0 0 0 0 0 0 0
0 0 0 0 0 0 0 0 0 0 0 0 0 0 0 0 0 0 0 0 0 0 0 0 0 0 0 0 0 0 0 0 0 0 0 0 0 0 0 0 0 0 0 0 0 0 0 0 0
0 0 0 0 0 0 0 0 0 0 0 0 0 0 0 0 0 0 0 0 0 0 0 0 0 0 0 0 0 0 0 0 0 0 0 0 0 0 0 0 0 0 0 0 0 0 0 0 0
0 0 0 0 0 0 0 0 0 0 0 0 0 0 0 0 0 0 0 0 0 0 0 0 0 0 0 0 0 0 0 0 0 0 0 0 0 0 0 0 0 0 0 0 0 0 0 0 0
0 0 0 0 0 0 0 0 0 0 0 0 0 0 0 0 0 0 0 0 0 0 0 0 0 0 0 0 0 0 0 0 0 0 0 0 0 0 0 0 0 0 0 0 0 0 0 0 0
0 0 0 0 0 0 0 0 0 0 0 0 0 0 0 0 0 0 0 0 0 0 0 0 0 0 0 0 0 0 0 0 0 0 0 0 0 0 0 0 0 0 0 0 0 0 0 0 0
0 0 0 0 0 0 0 0 0 0 0 0 0 0 0 0 0 0 0 0 0 0 0 0 0 0 0 0 0 0 0 0 0 0 0 0 0 0 0 0 0 0 0 0 0 0 0 0 0